Temp_Advection
nan nan nan nan nan nan nan nan nan nan nan nan nan nan nan nan nan nan nan nan nan nan nan nan nan nan nan nan nan nan nan nan nan nan nan nan nan nan nan nan nan nan nan
nan 1 -0 -0 1 1 -0 -1 -0 2 1 0 1 1 0 2 2 0 0 -0 0 0 -0 0 0 1 2 1 1 1 1 1 1 1 0 0 0 0 0 -0 -0 0 nan
nan 1 1 1 0 -0 0 0 2 1 1 1 0 1 0 1 2 1 -0 -0 0 1 1 0 1 1 1 1 1 1 1 1 1 1 0 0 -0 0 0 0 -0 -0 nan
nan 1 0 0 1 1 0 0 1 1 1 1 1 1 -0 0 0 0 1 1 0 1 1 1 1 1 1 1 1 1 1 1 1 1 0 0 0 -0 -0 -0 -1 -1 nan
nan -1 -1 2 2 1 1 1 1 1 2 2 2 1 -1 -1 0 1 1 1 1 1 1 1 1 1 1 1 1 1 1 1 0 0 0 0 -0 -1 -0 -0 -1 -1 nan
nan -0 1 2 2 2 2 2 1 1 1 1 1 0 0 0 1 1 0 1 1 1 1 1 1 1 1 1 1 1 0 1 0 0 -0 -0 -0 -0 -0 -0 -0 -1 nan
nan 1 2 2 2 2 2 1 0 1 1 0 0 0 1 1 0 1 1 1 1 1 1 1 1 1 1 1 1 1 1 1 0 0 -0 -0 -0 -0 -0 -0 -0 -0 nan
nan 1 1 1 2 2 1 1 1 1 0 1 1 1 1 0 1 1 1 1 1 1 1 1 1 1 1 1 1 1 0 0 0 -0 -0 -0 -0 -0 -0 -0 -1 -1 nan
nan 1 1 1 2 3 1 1 1 1 1 1 1 1 1 1 1 1 1 1 1 1 1 1 1 1 1 1 1 0 0 0 -0 -0 0 0 0 0 -0 -0 -0 -1 nan
nan 1 1 2 2 1 1 1 0 1 1 1 1 1 1 1 1 1 1 1 1 1 1 1 1 1 1 0 0 0 0 -0 -0 0 0 0 0 0 0 0 0 0 nan
nan 1 2 1 1 0 0 1 1 1 1 1 2 1 1 1 1 1 1 1 1 1 1 1 1 1 1 0 -0 -0 -0 0 0 -0 -0 0 0 0 0 0 0 0 nan
nan 1 1 0 1 1 1 1 1 1 1 1 1 1 1 1 1 1 1 1 1 0 1 1 1 0 -0 -0 0 0 0 0 0 -0 -0 -0 -0 -0 -0 -0 -0 0 nan
nan 1 1 1 1 1 1 1 1 1 1 1 1 1 1 1 1 1 1 0 0 1 1 0 0 0 0 0 0 0 0 -0 -0 -0 -0 -0 -0 -0 -0 -0 -0 -0 nan
nan 1 1 1 1 1 1 1 1 1 1 1 1 1 1 1 1 1 1 0 1 1 1 1 0 0 0 0 0 -0 -0 -0 -0 -0 -0 -0 -0 -0 -0 -1 -1 -1 nan
nan 1 1 1 1 1 1 1 1 1 0 0 1 1 1 1 1 1 1 1 1 0 0 0 0 0 0 0 0 -0 -0 -0 -0 -0 -0 -0 -0 -0 -0 -0 -1 -1 nan
nan 1 1 1 1 1 1 1 1 1 1 1 1 1 1 1 1 1 1 1 0 0 0 1 0 -0 0 0 -0 -0 -0 -0 -0 -1 -0 -1 -1 -1 -1 -0 -0 -1 nan
nan 1 1 1 1 1 2 2 2 1 1 1 1 1 1 0 0 0 0 0 0 0 1 1 1 1 0 -0 -0 -0 -0 -1 -1 -1 -0 -0 -1 -1 -1 -1 -1 -1 nan
nan 2 1 1 1 1 1 1 1 0 1 0 0 0 0 0 0 1 1 0 -0 -0 -0 0 0 0 0 0 -0 -0 -1 -1 -0 -0 -0 -0 -0 -1 -1 -1 -1 -1 nan
nan 1 1 0 0 0 0 0 0 0 0 0 1 0 0 0 0 0 0 0 0 -0 -0 0 0 0 0 -0 -0 -0 -0 -1 -0 -0 -0 -0 -0 -1 -1 -1 -1 -1 nan
nan 0 0 0 0 0 0 0 0 0 0 0 0 0 0 0 0 -0 -0 -0 -0 -0 -0 0 0 0 -0 -0 -0 -0 -1 -1 -0 -0 -0 -0 -0 -0 -1 -1 -1 -1 nan
nan 0 0 0 0 0 0 0 0 0 0 0 0 0 0 0 0 -0 -0 -0 -0 -0 -0 0 0 -0 -0 -0 -0 -0 -0 -1 -1 -0 -0 -0 -0 -0 -0 -0 -1 -1 nan
nan -0 -0 -0 -0 0 -0 -0 0 0 0 0 0 0 0 -0 -0 -0 -0 0 0 -0 -0 -0 -0 -0 -0 -0 -0 -0 -1 -0 -0 -0 -0 -0 -0 -0 -0 -0 -1 -1 nan
nan -0 -0 -0 -0 -0 -0 -0 -0 -0 -0 -0 -0 -0 -0 -0 -0 -0 -0 -0 -0 -0 -0 -0 -0 -0 0 0 -0 -0 -1 -0 -0 -0 -0 -0 -0 -0 -0 -0 -1 -1 nan
nan -0 -0 -0 -0 -0 -0 -0 -0 -0 -0 -0 -0 -0 -0 -0 -0 -0 -0 -0 -0 -0 -0 -0 -0 -0 -0 -0 0 0 -0 -0 -0 -0 -0 -1 -1 -0 -0 -0 -1 -1 nan
nan -0 -0 -0 -0 -0 -0 -0 -0 -0 -0 -0 -0 -0 -0 -0 -0 -0 -0 -0 0 0 0 -0 -0 -0 -0 -0 -0 -0 -0 0 0 0 -0 -0 -0 -0 -0 -0 -0 -1 nan
nan nan nan nan nan nan nan nan nan nan nan nan nan nan nan nan nan nan nan nan nan nan nan nan nan nan nan nan nan nan nan nan nan nan nan nan nan nan nan nan nan nan nan
Wind_Speed
38 39 41 40 37 34 33 33 35 37 43 44 45 44 45 44 48 47 31 34 35 38 34 36 34 33 38 38 36 31 29 27 25 26 25 25 28 28 28 29 27 26 27
41 42 42 39 42 41 43 39 31 41 45 44 48 48 41 45 40 36 36 35 35 31 33 31 32 35 35 32 32 27 24 25 24 25 26 26 29 26 27 25 26 28 31
45 45 44 46 46 46 48 41 45 45 39 34 43 43 46 48 43 34 30 35 34 32 32 32 31 30 30 28 24 23 24 25 25 25 26 27 27 24 28 30 29 29 31
41 46 48 50 51 52 49 46 50 54 49 47 43 44 44 41 41 38 39 31 30 29 27 26 26 26 22 22 22 22 24 24 24 23 26 26 27 26 29 29 32 32 36
32 36 38 43 47 47 47 49 52 52 51 49 49 42 40 38 38 36 36 35 30 25 24 24 22 20 20 21 22 23 23 20 22 23 26 26 24 26 29 31 36 39 40
32 32 32 35 39 40 39 41 44 49 50 47 43 38 41 39 43 37 38 35 27 23 21 21 22 22 21 23 22 19 18 20 21 25 23 24 25 28 30 32 35 39 42
33 33 33 32 34 34 33 37 39 42 42 40 36 34 37 35 36 34 28 23 21 20 21 22 23 23 22 21 20 18 19 20 24 25 23 25 27 27 31 33 33 35 38
31 31 29 27 28 31 33 35 37 38 35 32 32 36 32 27 26 23 22 20 19 20 20 21 21 22 21 19 17 18 20 25 22 23 24 24 26 27 28 29 31 35 38
30 27 25 24 25 28 30 32 35 36 34 32 26 26 23 22 22 21 20 22 21 21 21 21 21 22 21 18 17 22 24 22 22 23 24 25 26 26 25 27 27 29 37
29 24 22 20 19 20 20 22 23 24 25 24 23 20 18 18 19 20 22 21 20 21 22 22 21 18 17 18 24 23 22 22 22 23 22 22 23 23 22 23 24 27 29
24 20 18 13 10 10 11 17 22 25 26 24 21 18 18 18 18 17 15 15 16 18 17 16 15 18 19 22 22 22 23 23 23 24 24 24 23 23 22 22 22 24 27
18 16 13 10 13 17 20 24 23 22 20 18 18 20 19 19 18 17 15 14 14 13 16 18 18 18 20 21 21 22 23 23 22 23 24 24 24 24 23 23 23 25 26
15 15 14 16 16 17 18 18 17 16 16 17 17 18 19 19 18 16 16 16 16 16 17 17 17 19 20 20 19 20 21 21 22 23 23 23 24 25 25 25 25 26 29
16 16 18 18 19 16 14 12 12 13 14 15 16 16 15 15 15 16 16 17 17 16 16 16 17 16 16 17 18 19 19 21 21 22 23 24 25 25 25 26 27 28 31
17 17 18 17 16 16 15 12 10 9 8 9 11 12 13 15 16 16 15 14 14 15 15 14 14 13 17 17 17 18 19 20 21 22 24 25 26 26 26 26 26 27 29
16 18 17 17 17 15 14 16 16 14 13 13 13 14 16 14 14 14 14 14 15 14 13 11 11 14 16 17 18 19 20 22 23 23 24 24 25 26 27 26 25 26 28
14 18 18 18 20 21 21 21 22 18 15 12 11 11 8 9 10 12 13 13 11 13 15 17 17 17 18 19 20 21 21 22 23 24 23 23 23 25 26 26 25 26 28
24 25 24 24 22 20 17 14 11 10 8 6 5 5 6 8 10 12 10 9 11 13 14 14 14 15 16 17 19 21 23 24 24 23 22 21 21 23 24 24 24 25 27
20 20 18 17 13 11 8 6 5 4 3 4 7 7 6 5 6 7 8 10 11 12 11 12 14 15 17 19 20 22 23 24 23 21 21 21 20 21 23 23 23 23 25
18 15 13 12 11 9 7 6 6 5 5 5 4 4 6 8 9 10 11 11 10 10 11 13 15 16 18 20 22 23 25 23 22 21 21 20 19 20 22 23 23 25 25
15 13 10 9 9 7 6 5 4 4 4 4 4 5 6 7 8 9 9 9 10 11 13 15 17 19 21 23 25 26 26 25 22 21 20 20 20 21 20 21 23 22 24
12 11 9 8 7 6 5 4 3 3 2 1 2 4 6 7 8 8 9 11 13 15 17 19 21 23 25 26 27 27 27 24 21 20 21 21 21 21 21 21 22 23 23
10 9 8 8 6 6 5 4 3 3 2 2 3 6 8 9 11 12 13 14 16 17 19 21 23 24 24 24 24 25 26 23 21 21 21 21 22 21 20 22 23 24 23
9 8 8 7 6 5 5 5 5 4 4 5 7 9 10 12 13 14 15 16 17 18 20 21 22 23 24 24 23 23 22 22 21 21 21 22 22 21 21 22 23 23 23
9 8 7 7 6 6 5 5 5 6 7 8 9 11 12 13 13 15 16 17 19 21 21 21 22 23 22 22 22 21 20 20 20 20 20 20 21 20 21 22 23 24 23
8 7 7 7 6 6 6 6 7 8 10 11 11 11 11 13 15 17 19 20 20 21 21 20 20 21 22 22 21 20 19 18 18 17 18 19 19 20 20 22 23 24 24
Wind_Direction
234 232 230 231 233 237 242 244 249 256 249 243 246 255 262 268 268 274 252 263 254 268 262 272 269 264 257 253 255 258 260 259 266 271 275 277 280 287 286 285 285 285 285
240 239 237 238 237 236 239 235 247 239 253 255 258 260 266 260 268 248 257 252 263 271 275 272 266 258 253 253 256 251 259 264 268 269 275 279 289 290 288 288 288 287 289
244 243 245 242 239 240 243 242 243 245 245 238 250 256 257 259 266 263 257 267 272 270 270 264 258 251 252 250 249 252 255 260 262 266 275 283 288 290 291 290 290 293 295
242 244 246 247 247 244 242 244 243 248 250 249 259 268 256 261 257 251 254 259 277 268 261 256 249 249 246 245 248 253 254 255 262 270 281 288 292 295 295 300 299 299 299
245 243 248 252 253 253 249 246 245 250 254 256 258 267 260 252 249 247 251 259 263 252 246 246 244 241 246 250 252 250 251 256 270 280 288 290 292 296 299 304 306 307 307
244 245 250 253 254 255 254 251 248 250 252 256 256 264 261 255 252 254 252 261 243 243 240 242 243 245 240 246 239 241 256 274 280 290 288 288 294 300 302 306 307 309 311
242 246 249 249 252 251 251 248 248 249 250 250 256 256 260 253 253 254 250 233 233 237 241 246 240 237 235 232 236 249 264 275 286 287 289 292 297 300 304 304 305 303 302
240 240 242 244 248 246 244 245 248 248 244 242 257 259 250 246 244 228 225 232 237 242 235 235 237 233 229 234 246 262 278 286 282 286 290 294 296 298 300 303 304 303 303
232 233 233 236 241 242 241 242 243 246 249 252 234 234 227 224 225 227 233 241 230 226 225 224 222 225 231 240 264 274 278 281 286 289 293 295 298 301 302 301 302 302 304
226 227 231 235 242 239 242 247 243 237 226 214 205 206 211 218 226 238 240 234 228 225 219 217 223 232 250 265 272 280 284 284 287 288 290 293 294 296 299 298 300 301 303
222 221 225 233 236 235 230 229 213 199 196 201 206 216 219 214 211 219 207 216 216 207 211 225 245 258 270 274 278 283 284 289 290 292 294 295 297 298 297 296 296 296 299
212 208 207 221 234 223 209 196 195 195 194 207 214 203 198 200 201 188 196 200 209 227 243 250 258 264 270 279 285 287 289 291 293 295 298 299 300 301 301 301 300 300 299
193 196 204 203 205 201 202 196 192 202 210 202 198 197 195 195 200 204 210 224 231 239 249 254 263 272 278 282 284 287 291 295 297 297 298 302 304 304 305 306 305 306 304
196 198 196 200 196 187 191 202 214 209 204 204 201 198 195 199 208 217 222 233 244 250 254 261 267 275 281 282 286 290 293 294 296 299 303 303 304 305 307 309 308 309 306
190 191 193 195 197 196 189 186 191 195 198 221 222 221 228 222 222 228 231 233 244 256 268 273 274 282 284 283 287 290 293 295 298 301 303 303 303 305 308 309 310 310 309
180 177 181 184 182 188 195 189 183 192 198 207 211 217 213 211 217 228 243 258 269 274 274 275 282 285 285 287 291 295 296 298 299 299 300 302 304 307 308 309 310 311 312
178 171 172 178 180 180 178 181 183 175 178 177 185 193 205 235 257 267 269 273 269 276 276 275 274 274 278 284 289 294 298 299 301 302 301 302 305 306 306 309 312 312 312
165 166 165 164 165 161 156 149 148 156 169 181 219 243 246 248 255 262 267 279 287 292 294 294 289 287 288 293 296 298 299 300 301 300 299 300 303 303 306 310 312 314 316
149 144 145 141 137 139 140 144 148 150 169 196 204 220 226 246 269 276 283 290 295 299 298 292 289 290 293 296 297 298 300 303 302 298 297 299 302 301 305 310 311 312 313
110 115 124 131 137 146 147 150 157 163 167 177 205 236 262 273 283 292 301 309 308 300 294 291 290 293 295 297 300 302 304 305 302 298 298 300 301 303 307 310 315 317 315
116 120 122 126 127 135 141 141 144 149 163 174 201 231 258 281 296 306 306 302 294 294 295 294 294 296 298 299 300 302 303 304 302 299 298 299 300 304 309 311 313 316 316
102 108 109 105 107 110 110 112 117 133 146 181 255 281 291 298 301 301 298 296 297 298 297 296 296 297 298 298 299 301 303 304 302 299 297 299 303 308 310 311 315 318 319
88 88 89 90 87 83 78 74 65 52 36 355 315 310 308 309 309 308 307 304 302 300 299 299 297 296 296 297 299 301 301 301 299 297 299 301 303 308 310 312 317 319 319
70 70 69 69 66 59 50 40 27 13 353 335 325 319 317 316 314 312 311 310 309 311 313 311 310 309 308 306 304 302 298 296 294 295 295 298 303 307 309 311 315 318 320
55 57 56 51 42 34 24 15 2 346 334 326 321 318 317 315 313 312 313 314 317 318 316 315 314 313 313 312 312 307 300 297 295 293 293 296 302 306 307 310 315 317 318
38 35 32 29 25 20 12 4 351 341 334 332 332 331 329 325 323 322 323 323 322 321 320 319 318 317 317 317 315 311 306 302 299 294 292 298 302 305 309 312 315 316 319
Height
1450 1455 1460 1464 1469 1474 1479 1482 1485 1491 1490 1493 1496 1498 1499 1500 1499 1498 1493 1500 1501 1505 1507 1508 1508 1508 1509 1510 1512 1513 1513 1516 1514 1517 1517 1518 1519 1519 1519 1518 1516 1515 1515
1442 1447 1452 1457 1461 1464 1467 1471 1475 1476 1478 1482 1485 1488 1489 1488 1490 1490 1492 1495 1495 1496 1497 1498 1499 1500 1501 1503 1504 1505 1508 1510 1509 1509 1510 1510 1511 1511 1510 1509 1508 1507 1505
1435 1439 1443 1446 1451 1454 1458 1464 1468 1469 1474 1473 1475 1479 1479 1480 1483 1484 1488 1489 1488 1489 1488 1490 1491 1493 1494 1495 1497 1499 1501 1504 1502 1502 1503 1503 1503 1504 1502 1500 1498 1496 1496
1426 1430 1433 1436 1439 1444 1449 1454 1458 1459 1463 1467 1468 1469 1470 1471 1475 1477 1479 1480 1480 1480 1480 1483 1484 1486 1487 1489 1492 1495 1497 1497 1499 1498 1498 1497 1497 1497 1494 1491 1489 1489 1485
1418 1421 1421 1425 1429 1434 1439 1443 1448 1449 1452 1457 1459 1459 1462 1464 1466 1469 1471 1473 1472 1473 1475 1476 1479 1480 1482 1484 1488 1490 1492 1493 1493 1492 1493 1492 1491 1490 1487 1484 1479 1476 1474
1410 1411 1415 1418 1420 1424 1429 1434 1437 1439 1443 1446 1450 1451 1454 1455 1458 1462 1464 1464 1465 1467 1470 1472 1473 1475 1477 1480 1483 1485 1487 1487 1487 1487 1487 1486 1485 1483 1479 1477 1473 1468 1464
1404 1406 1409 1411 1413 1417 1421 1425 1429 1431 1436 1439 1442 1443 1446 1448 1452 1455 1456 1457 1460 1462 1464 1466 1468 1471 1473 1475 1478 1479 1480 1480 1481 1481 1480 1479 1477 1475 1472 1469 1467 1463 1460
1398 1401 1403 1406 1408 1411 1414 1418 1422 1426 1429 1432 1436 1437 1440 1443 1446 1448 1451 1454 1456 1458 1461 1463 1465 1467 1469 1471 1473 1474 1474 1475 1475 1474 1474 1472 1470 1469 1467 1463 1459 1455 1451
1392 1395 1398 1401 1403 1406 1410 1414 1417 1421 1424 1427 1429 1432 1435 1438 1440 1442 1445 1448 1451 1454 1456 1459 1462 1463 1466 1468 1469 1470 1470 1470 1469 1468 1467 1466 1464 1462 1460 1457 1454 1451 1443
1386 1389 1394 1397 1400 1403 1405 1409 1411 1414 1418 1421 1424 1428 1430 1433 1436 1438 1441 1445 1448 1450 1453 1455 1458 1460 1461 1463 1465 1465 1465 1464 1463 1462 1461 1460 1458 1456 1455 1452 1449 1445 1441
1382 1385 1390 1394 1398 1401 1401 1405 1408 1409 1412 1416 1420 1425 1428 1431 1433 1436 1439 1442 1445 1448 1451 1453 1455 1457 1458 1459 1459 1459 1458 1458 1456 1455 1454 1453 1452 1450 1449 1446 1443 1440 1436
1379 1383 1387 1390 1395 1398 1399 1401 1405 1409 1411 1414 1418 1421 1424 1428 1431 1434 1438 1441 1444 1447 1449 1451 1452 1454 1454 1454 1454 1453 1453 1451 1450 1449 1447 1446 1444 1442 1441 1438 1435 1431 1428
1377 1383 1386 1389 1392 1396 1399 1401 1403 1408 1412 1415 1416 1419 1422 1425 1429 1434 1437 1440 1443 1445 1447 1448 1449 1449 1449 1449 1448 1448 1447 1446 1444 1443 1441 1439 1437 1435 1432 1430 1426 1422 1418
1378 1381 1385 1388 1391 1394 1397 1402 1406 1407 1410 1415 1417 1419 1423 1426 1429 1432 1435 1438 1440 1442 1443 1443 1443 1444 1445 1445 1444 1443 1442 1440 1438 1437 1435 1433 1431 1428 1424 1421 1417 1413 1408
1376 1380 1384 1387 1392 1394 1398 1402 1406 1410 1413 1415 1419 1421 1424 1427 1429 1431 1433 1435 1436 1438 1439 1439 1440 1439 1440 1440 1439 1438 1436 1435 1433 1432 1429 1426 1423 1421 1418 1414 1410 1406 1401
1376 1379 1385 1388 1391 1397 1399 1402 1406 1410 1413 1415 1418 1420 1423 1426 1428 1429 1431 1433 1433 1433 1434 1435 1435 1436 1437 1436 1434 1433 1431 1430 1428 1426 1423 1420 1416 1413 1409 1407 1404 1399 1393
1377 1380 1384 1389 1392 1395 1397 1399 1402 1407 1410 1414 1417 1420 1423 1426 1427 1428 1430 1430 1430 1430 1430 1430 1430 1430 1430 1429 1428 1426 1424 1423 1421 1419 1415 1412 1409 1406 1403 1399 1396 1391 1386
1375 1379 1383 1386 1391 1396 1400 1403 1407 1410 1412 1415 1418 1420 1423 1425 1425 1426 1426 1427 1428 1427 1427 1427 1426 1426 1425 1424 1423 1421 1418 1416 1414 1411 1408 1406 1403 1399 1396 1393 1389 1385 1381
1377 1381 1387 1391 1398 1403 1406 1407 1409 1411 1414 1416 1418 1420 1422 1423 1424 1424 1424 1424 1424 1424 1424 1423 1423 1422 1420 1419 1417 1415 1412 1410 1407 1404 1402 1399 1397 1394 1390 1387 1383 1379 1375
1388 1392 1395 1399 1401 1405 1407 1409 1411 1412 1413 1416 1419 1420 1422 1423 1423 1423 1422 1421 1421 1421 1421 1420 1419 1417 1416 1414 1412 1408 1405 1403 1400 1397 1395 1393 1391 1388 1385 1381 1378 1374 1371
1394 1399 1401 1403 1404 1406 1409 1410 1411 1413 1415 1416 1418 1419 1420 1421 1420 1419 1419 1418 1418 1417 1416 1416 1414 1412 1410 1408 1405 1402 1398 1396 1393 1390 1388 1386 1384 1381 1379 1376 1374 1368 1365
1399 1402 1403 1405 1407 1409 1410 1412 1412 1414 1415 1415 1417 1417 1417 1418 1417 1417 1416 1415 1414 1413 1411 1410 1408 1406 1403 1401 1398 1394 1391 1389 1387 1385 1383 1381 1379 1376 1373 1370 1367 1364 1360
1403 1405 1406 1408 1410 1411 1412 1412 1414 1414 1414 1415 1415 1415 1415 1415 1414 1413 1411 1410 1408 1407 1405 1403 1401 1398 1396 1393 1391 1387 1384 1382 1380 1378 1376 1374 1373 1370 1368 1365 1362 1359 1355
1406 1408 1409 1410 1411 1411 1411 1412 1412 1412 1413 1413 1413 1413 1412 1411 1410 1408 1406 1405 1403 1401 1399 1397 1394 1391 1388 1385 1383 1381 1378 1375 1373 1371 1371 1369 1367 1365 1362 1360 1357 1354 1350
1409 1410 1410 1410 1410 1410 1410 1411 1411 1411 1411 1411 1410 1409 1408 1407 1405 1403 1402 1400 1398 1396 1393 1391 1387 1384 1381 1379 1376 1374 1372 1370 1368 1366 1365 1364 1362 1360 1358 1355 1352 1348 1345
1410 1410 1410 1410 1410 1410 1410 1410 1410 1409 1408 1408 1407 1406 1404 1403 1401 1399 1397 1395 1392 1390 1387 1385 1382 1379 1376 1373 1371 1368 1366 1364 1362 1361 1360 1358 1357 1355 1352 1349 1347 1343 1340